[[{"header":{"parameterUnit":"m.s-1","parameterCategory":1,"la1":30.2991,"la2":30.254,"lo1":-89.0895,"lo2":-89.0444,"dy":0.0017,"dx":0.0017,"nx":28,"ny":28,"refTime":"2025-07-31T03:00:00:Z","depth":0,"parameterNumber":2,"parameterNumberName":"U-component_of_WINDS"},"data":[0,0,0,0,0,0,0,0,0,0,0,0,0,0,0,0,0,0,0,0,0,0,0,0,0,0,0,0,0,0,0,0,0,0,0,0,0,0,0,0,0,0,0,0,0,0,0,0,0,0,0,0,0,0,0,0,0,0,1.3412,1.3414,0,1.3567,1.3569,1.3571,1.3637,1.3637,1.3636,1.3636,1.3798,1.3802,1.3806,0,0,0,0,0,0,0,0,0,0,0,0,0,1.3176,1.318,1.3412,1.3414,1.3416,1.3567,1.3569,1.3571,1.3637,1.3637,1.3636,1.3636,1.3796,1.3801,1.3807,0,0,0,0,0,0,0,0,0,0,0,0,0,1.33,1.3182,1.3412,1.3467,1.3474,1.3566,1.3569,1.3572,1.3637,1.3637,1.3636,1.3636,1.3794,1.3801,1.3808,1.3858,0,0,1.3828,1.3831,0,0,0,0,0,0,0,0,1.3293,1.3308,1.3457,1.3463,1.3471,1.3582,1.3545,1.3668,1.3637,1.3575,1.3636,1.3636,1.3726,1.3739,1.3769,1.3865,1.3872,1.3829,1.3833,1.3836,1.3838,0,0,0,0,0,0,0,1.3284,1.3302,1.3474,1.3459,1.3468,1.3485,1.3502,1.3569,1.3651,1.358,1.3586,1.3603,1.373,1.3762,1.3773,1.3875,1.3829,1.3835,1.3839,1.3842,1.4021,1.4021,0,0,0,0,0,0,1.3266,1.3294,1.3469,1.3478,1.3379,1.3489,1.3509,1.3547,1.3651,1.3666,1.3603,1.3605,1.3751,1.3765,1.3779,1.3845,1.3836,1.3842,1.3846,1.402,1.4021,1.4022,0,0,0,0,0,0,1.3261,1.3281,1.3462,1.3388,1.3412,1.3494,1.3536,1.355,1.3582,1.3668,1.3683,1.362,1.3751,1.3769,1.3838,1.3851,1.3846,1.3852,1.4019,1.402,1.4021,1.3977,0,0,0,0,0,0,1.3254,1.3279,1.3298,1.3388,1.3416,1.3517,1.3537,1.3553,1.3593,1.3598,1.3688,1.3703,1.3752,1.3827,1.3844,1.3861,1.3857,1.4019,1.402,1.4021,1.3977,1.3976,1.3975,0,0,0,0,0,1.3245,1.328,1.3298,1.3319,1.3442,1.3518,1.3534,1.359,1.3594,1.3615,1.367,1.37,1.3847,1.3833,1.3854,1.3872,1.4018,1.4019,1.4021,1.3978,1.3976,1.3975,0,0,0,0,0,0,1.319,1.3292,1.3314,1.3379,1.3439,1.3529,1.3557,1.3586,1.3647,1.3649,1.3716,1.3736,1.3798,1.3842,1.3825,1.3926,1.3935,1.3941,1.3895,1.3895,1.3893,1.3882,1.3863,0,0,0,0,0,1.3186,1.3238,1.3325,1.3374,1.3403,1.3474,1.351,1.3547,1.3612,1.3639,1.3699,1.3762,1.3822,1.3861,1.3922,1.3984,1.4005,1.4007,1.4005,1.4004,1.4008,1.4045,1.4047,1.4027,1.4027,1.4027,0,0,1.3177,1.3239,1.3269,1.3365,1.3416,1.3469,1.3495,1.3551,1.3592,1.3648,1.3715,1.3761,1.3836,1.3902,1.3934,1.394,1.4018,1.4006,1.4004,1.4009,1.4047,1.4048,1.405,1.4028,1.4027,1.4027,0,0,1.3189,1.3241,1.3287,1.3337,1.3414,1.3461,1.3472,1.3558,1.359,1.3659,1.3702,1.3752,1.3855,1.3906,1.3946,1.3977,1.4007,1.3994,1.3989,1.4023,1.4025,1.4027,1.4038,1.4041,1.3998,1.3998,1.3998,0,1.3168,1.325,1.3307,1.3361,1.3402,1.3453,1.3501,1.3548,1.364,1.3668,1.3674,1.3804,1.3858,1.3936,1.3944,1.3974,1.3989,1.3985,1.402,1.4022,1.4025,1.4036,1.404,1.3996,1.3996,1.3997,1.3997,0,1.3222,1.3278,1.3306,1.3393,1.3438,1.3488,1.3554,1.3592,1.3625,1.3672,1.3742,1.3808,1.3883,1.3905,1.3938,1.3988,1.399,1.4007,1.4017,1.4024,1.4036,1.4041,1.3993,1.3994,1.3995,1.3995,0,0,1.3204,1.3321,1.3331,1.3371,1.3459,1.3504,1.3557,1.3629,1.3661,1.3723,1.377,1.3855,1.3872,1.3917,1.3956,1.3987,1.4007,1.4001,1.4003,1.4,1.4067,1.4053,1.4057,1.4027,1.4028,1.4029,1.406,0,1.3228,1.3324,1.3377,1.3451,1.3504,1.3553,1.36,1.3659,1.3704,1.3756,1.3807,1.3866,1.3883,1.391,1.3943,1.3998,1.4022,1.3996,1.4072,1.4074,1.4052,1.4064,1.405,1.4076,1.4065,1.4066,1.4067,0,1.3269,1.3329,1.3408,1.349,1.3514,1.3554,1.3625,1.3674,1.3743,1.3773,1.3823,1.3862,1.3921,1.3926,1.4008,1.3989,1.4024,1.4055,1.4058,1.4067,1.4071,1.4074,1.4086,1.409,1.4075,1.4074,1.4074,0,1.3248,1.3349,1.3409,1.3442,1.3539,1.3566,1.3608,1.3676,1.3716,1.3778,1.3805,1.3873,1.391,1.3963,1.402,1.4018,1.4096,1.4106,1.4124,1.4123,1.4139,1.4137,1.4156,1.416,1.416,1.416,1.416,0,1.3269,1.3316,1.3401,1.3438,1.3492,1.3553,1.3605,1.3651,1.3711,1.3758,1.3806,1.3849,1.3922,1.3975,1.402,1.4081,1.4098,1.4125,1.4136,1.4121,1.4117,1.4145,1.4144,1.4161,1.4161,1.416,1.416,0,1.3255,1.3314,1.3384,1.3469,1.3492,1.3528,1.3602,1.364,1.3687,1.3747,1.3765,1.3839,1.3904,1.3966,1.4053,1.4083,1.4145,1.416,1.4121,1.4128,1.4142,1.414,1.418,1.4189,1.4185,1.4185,1.4185,0,1.3265,1.3302,1.3391,1.3426,1.3467,1.3522,1.3563,1.3624,1.3665,1.3745,1.3774,1.3842,1.39,1.4002,1.4064,1.4131,1.4148,1.4158,1.4159,1.4142,1.4149,1.4146,1.415,1.4157,1.4156,1.4156,1.4156,0,1.3276,1.3304,1.336,1.3427,1.3474,1.353,1.3587,1.3613,1.3685,1.3729,1.3795,1.384,1.3928,1.3996,1.407,1.4114,1.4147,1.4155,1.4163,1.4148,1.4124,1.4137,1.4118,1.4154,1.4154,1.4154,1.4154,1.4154,1.3275,1.331,1.3379,1.344,1.3489,1.3542,1.3582,1.3634,1.369,1.3766,1.3799,1.3866,1.3934,1.4037,1.408,1.4134,1.4142,1.4153,1.4157,1.4158,1.4155,1.4114,1.4148,1.4148,1.4148,1.4149,1.4149,0,1.329,1.3336,1.3391,1.347,1.3518,1.3544,1.3609,1.3648,1.3706,1.3766,1.3822,1.3898,1.3963,1.4031,1.41,1.413,1.4147,1.4146,1.4145,1.4155,1.4144,1.4131,1.4132,1.4131,1.4131,1.4131,1.4131,1.4131,1.3303,1.3363,1.3398,1.3484,1.3531,1.3596,1.3631,1.368,1.3728,1.3811,1.3865,1.3908,1.3971,1.4045,1.4107,1.4125,1.4149,1.4143,1.4166,1.4155,1.4156,1.4157,1.4144,1.4148,1.4148,1.4172,1.4173,1.4173]},{"header":{"parameterUnit":"m.s-1","parameterCategory":1,"la1":30.2991,"la2":30.254,"lo1":-89.0895,"lo2":-89.0444,"dy":0.0017,"dx":0.0017,"nx":28,"ny":28,"refTime":"2025-07-31T03:00:00:Z","depth":0,"parameterNumber":3,"parameterNumberName":"V-component_of_WINDS"},"data":[0,0,0,0,0,0,0,0,0,0,0,0,0,0,0,0,0,0,0,0,0,0,0,0,0,0,0,0,0,0,0,0,0,0,0,0,0,0,0,0,0,0,0,0,0,0,0,0,0,0,0,0,0,0,0,0,0,0,2.0072,2.0071,0,2.0038,2.0038,2.0038,2.0026,2.0026,2.0027,2.0027,1.9992,1.9991,1.999,0,0,0,0,0,0,0,0,0,0,0,0,0,2.0123,2.0122,2.0072,2.0071,2.0071,2.0038,2.0038,2.0037,2.0026,2.0026,2.0027,2.0027,1.9992,1.9991,1.999,0,0,0,0,0,0,0,0,0,0,0,0,0,2.0097,2.0122,2.0072,2.0061,2.006,2.0038,2.0038,2.0037,2.0026,2.0026,2.0027,2.0027,1.9993,1.9991,1.999,1.9976,0,0,1.9985,1.9984,0,0,0,0,0,0,0,0,2.0098,2.0095,2.0063,2.0062,2.0061,2.0037,2.0043,2.0017,2.0026,2.0039,2.0027,2.0027,2.0007,2.0004,1.9997,1.9974,1.9973,1.9985,1.9984,1.9983,1.9983,0,0,0,0,0,0,0,2.01,2.0096,2.0058,2.0063,2.0061,2.0058,2.0054,2.0038,2.0022,2.0038,2.0037,2.0033,2.0006,1.9999,1.9996,1.9972,1.9985,1.9983,1.9982,1.9982,1.9933,1.9933,0,0,0,0,0,0,2.0104,2.0098,2.006,2.0057,2.008,2.0056,2.0052,2.0044,2.0022,2.0019,2.0033,2.0033,2.0001,1.9998,1.9995,1.9976,1.9983,1.9982,1.9981,1.9933,1.9933,1.9933,0,0,0,0,0,0,2.0105,2.0101,2.0061,2.0077,2.0072,2.0055,2.0046,2.0043,2.0036,2.0019,2.0016,2.0029,2.0001,1.9997,1.998,1.9974,1.9981,1.9979,1.9934,1.9933,1.9933,1.9938,0,0,0,0,0,0,2.0106,2.0101,2.0096,2.0077,2.0071,2.0047,2.0046,2.0043,2.0034,2.0033,2.0014,2.0011,2.0001,1.9982,1.9978,1.9972,1.9978,1.9934,1.9934,1.9933,1.9938,1.9937,1.9937,0,0,0,0,0,2.0108,2.01,2.0096,2.0092,2.0065,2.0047,2.0043,2.0033,2.0033,2.0028,2.0016,2.0011,1.9976,1.9981,1.9976,1.9969,1.9935,1.9934,1.9933,1.9938,1.9937,1.9937,0,0,0,0,0,0,2.0119,2.0097,2.0093,2.0078,2.0064,2.0045,2.0038,2.0033,2.0019,2.0019,2.0006,2.0001,1.9985,1.9975,1.9982,1.9953,1.9955,1.9953,1.996,1.9959,1.9959,1.9961,1.9977,0,0,0,0,0,2.0119,2.0107,2.0088,2.0077,2.007,2.0055,2.0047,2.004,2.0025,2.0019,2.0006,1.9992,1.9977,1.9968,1.9954,1.9936,1.9931,1.9929,1.9929,1.9928,1.9927,1.9915,1.9913,1.993,1.993,1.993,0,0,2.012,2.0107,2.01,2.0078,2.0067,2.0053,2.0051,2.0037,2.0026,2.0017,2.0,1.999,1.9972,1.9955,1.9946,1.9946,1.9921,1.9927,1.9927,1.9926,1.9914,1.9912,1.9911,1.993,1.993,1.993,0,0,2.0115,2.0104,2.0092,2.008,2.0063,2.0053,2.005,2.0031,2.0024,2.0006,1.9998,1.9985,1.996,1.9948,1.9938,1.9925,1.9919,1.9921,1.9918,1.9906,1.9905,1.9903,1.9897,1.9895,1.9919,1.9919,1.9919,0,2.0118,2.0098,2.0087,2.0073,2.0063,2.0053,2.004,2.0029,2.0008,2.0,2.0001,1.9968,1.9956,1.9934,1.9931,1.9924,1.9919,1.9923,1.9906,1.9905,1.9903,1.9897,1.9895,1.9919,1.9919,1.9919,1.9919,0,2.0102,2.0088,2.0081,2.006,2.0049,2.0035,2.0021,2.0011,2.0004,1.9993,1.9973,1.9958,1.994,1.9934,1.9928,1.991,1.991,1.9909,1.991,1.9902,1.9896,1.9893,1.992,1.992,1.992,1.9919,0,0,2.0104,2.0075,2.0072,2.0062,2.0041,2.0029,2.0014,1.9996,1.9986,1.9972,1.9958,1.9936,1.9933,1.9922,1.9914,1.9904,1.9892,1.9903,1.9902,1.99,1.9869,1.987,1.9868,1.9888,1.9888,1.9887,1.987,0,2.0095,2.0069,2.0057,2.0035,2.0021,2.001,1.9997,1.9982,1.9971,1.9956,1.9944,1.9928,1.9927,1.992,1.9909,1.9896,1.9885,1.9897,1.9874,1.9873,1.9878,1.9865,1.9866,1.9851,1.9868,1.9868,1.9867,0,2.0082,2.0066,2.0043,2.0021,2.0014,2.0003,1.9983,1.997,1.9952,1.9944,1.9931,1.9922,1.9905,1.9907,1.9881,1.9889,1.9879,1.9871,1.987,1.9867,1.9869,1.986,1.9846,1.9844,1.9864,1.9864,1.9864,0,2.0084,2.0056,2.0038,2.003,2.0004,1.9996,1.9985,1.9967,1.9956,1.9938,1.993,1.9911,1.9901,1.9886,1.9871,1.9875,1.9847,1.9848,1.9839,1.9839,1.9833,1.9834,1.9816,1.9828,1.9828,1.9828,1.9828,0,2.0075,2.0061,2.0038,2.0028,2.0011,1.9996,1.9979,1.9968,1.9951,1.9936,1.9926,1.9912,1.9895,1.9878,1.9867,1.9847,1.9842,1.9835,1.9832,1.9835,1.9836,1.9828,1.9828,1.9827,1.9828,1.9828,1.9828,0,2.0074,2.0059,2.0038,2.0015,2.0009,1.9997,1.9977,1.9965,1.9953,1.9934,1.9929,1.9909,1.9889,1.9873,1.9848,1.984,1.9817,1.9815,1.9823,1.9822,1.9813,1.9813,1.9789,1.9784,1.98,1.98,1.98,0,2.0069,2.0058,2.0033,2.0022,2.0011,1.9994,1.9982,1.9966,1.9954,1.9931,1.9921,1.99,1.9882,1.985,1.9833,1.9813,1.9809,1.9801,1.9806,1.9808,1.9807,1.9807,1.9805,1.9801,1.9801,1.9801,1.9801,0,2.0061,2.0054,2.0037,2.0016,2.0002,1.9986,1.9969,1.996,1.9941,1.9928,1.9907,1.9893,1.9865,1.9844,1.9821,1.9808,1.98,1.9799,1.9796,1.9799,1.9804,1.9799,1.9821,1.98,1.98,1.98,1.98,1.98,2.0057,2.0046,2.0026,2.0007,1.9992,1.9976,1.9962,1.9948,1.993,1.9906,1.9898,1.9876,1.9855,1.9823,1.981,1.9792,1.9791,1.9787,1.9785,1.9784,1.9783,1.9807,1.9788,1.9788,1.9788,1.9788,1.9788,0,2.0048,2.0034,2.0016,1.9992,1.9976,1.997,1.995,1.9937,1.9918,1.99,1.9882,1.9856,1.9835,1.9815,1.9792,1.9781,1.9776,1.9775,1.9775,1.9772,1.9786,1.9791,1.9779,1.9779,1.9779,1.9779,1.9779,1.9779,2.0041,2.0021,2.001,1.9981,1.9967,1.9945,1.9934,1.9918,1.9903,1.9875,1.9857,1.9844,1.9824,1.9799,1.9778,1.9773,1.9764,1.9764,1.9757,1.977,1.9772,1.9773,1.9777,1.9762,1.9762,1.9745,1.9745,1.9744]}]]